Simultaneous Nadir Overpasses (SNOs) Predictions

Prediction of SNOs between TERRA and METOP-C Satellite Orbit:

Table of predicted SNOs for the next 14.0 days since TLE Epoch: 10/23/2021
Index Date (TERRA) Time (TERRA) Lat,Lon (TERRA) SZA (TERRA ) Date (METOP-C) Time (METOP-C) Lat,Lon (METOP-C) SZA (METOP-C ) Distance(km) Time Diff (sec)
1 10/25/2021 07:50:06 -81.23, -73.50 83.76 10/25/2021 07:49:29 -81.22, -73.40 83.77 1.73 37
2 10/25/2021 08:39:32 81.23, 94.21 96.27 10/25/2021 08:40:08 81.23, 94.16 96.28 0.95 36
3 10/28/2021 03:24:16 -81.22, -7.17 82.82 10/28/2021 03:23:52 -81.22, -7.05 82.82 2.09 24
4 10/28/2021 04:13:42 81.22, 160.51 97.20 10/28/2021 04:14:31 81.23, 160.50 97.22 0.46 49
5 10/30/2021 22:58:27 -81.21, 59.11 81.93 10/30/2021 22:58:16 -81.22, 59.28 81.90 3.11 11
6 10/30/2021 23:47:52 81.24,-132.86 98.15 10/30/2021 23:48:54 81.23,-132.79 98.19 1.12 62
7 11/02/2021 17:43:11 81.20, -42.29 98.93 11/02/2021 17:41:59 81.21, -42.16 98.92 2.43 72
8 11/02/2021 18:32:37 -81.22, 125.71 81.01 11/02/2021 18:32:40 -81.22, 125.59 81.02 2.08 3
9 11/05/2021 13:17:20 81.20, 24.23 99.80 11/05/2021 13:16:22 81.21, 24.13 99.76 1.87 58



Historial Predications of SNOs between TERRA and METOP-C
